When you browse on this site, cookies collect data to enhance your experience and personalize the content and advertising you see.
Visit our Privacy Policy to learn more. By continuing to use the site, you agree to this use of cookies and data.
  • In Hungary
  • List of Countries
  • For 7 days
  • Water Temperature
  • Satellite Maps
  • Weather Map
  • News
  • Weather Widgets
  • user-avatar
    Login

    Hourly Weather Palma del Rio

    Today, 20 January, Sunday

    Time Temperature Precipitation Wind Pressure Humidity
    00:00 +12°C° 0.1 mm 4 mps 754 mmHg 97%
    01:00 +12°C° 0.3 mm 4 mps 753 mmHg 97%
    02:00 +11°C° 0.3 mm 4 mps 753 mmHg 97%
    03:00 +11°C° 0.3 mm 3 mps 752 mmHg 97%
    04:00 +11°C° 0.3 mm 4 mps 752 mmHg 95%
    05:00 +11°C° 0.3 mm 4 mps 752 mmHg 94%
    06:00 +11°C° 0.3 mm 4 mps 752 mmHg 93%
    07:00 +11°C° 0 mm 4 mps 753 mmHg 90%
    08:00 +11°C° 0 mm 4 mps 753 mmHg 87%
    09:00 +11°C° 0 mm 4 mps 754 mmHg 84%
    10:00 +12°C° 0 mm 4 mps 754 mmHg 76%
    11:00 +14°C° 0 mm 4 mps 754 mmHg 68%
    12:00 +15°C° 0 mm 4 mps 755 mmHg 60%
    13:00 +15°C° 0 mm 4 mps 755 mmHg 57%
    14:00 +17°C° 0 mm 4 mps 755 mmHg 54%
    15:00 +17°C° 0 mm 4 mps 755 mmHg 51%
    16:00 +15°C° 0 mm 4 mps 755 mmHg 56%
    17:00 +13°C° 0 mm 3 mps 756 mmHg 62%
    18:00 +11°C° 0 mm 3 mps 756 mmHg 68%
    19:00 +10°C° 0 mm 2 mps 757 mmHg 69%
    20:00 +10°C° 0 mm 2 mps 757 mmHg 70%
    21:00 +9°C° 0 mm 2 mps 758 mmHg 70%
    22:00 +8°C° 0 mm 2 mps 758 mmHg 72%
    23:00 +9°C° 0 mm 1 mps 759 mmHg 74%

    Tomorrow, 21 January, Monday

    Time Temperature Precipitation Wind Pressure Humidity
    00:00 +8°C° 0 mm 1 mps 759 mmHg 76%
    01:00 +8°C° 0 mm 1 mps 759 mmHg 77%
    02:00 +8°C° 0 mm 1 mps 759 mmHg 79%
    03:00 +7°C° 0 mm 1 mps 759 mmHg 80%
    04:00 +7°C° 0 mm 1 mps 759 mmHg 81%
    05:00 +7°C° 0 mm 1 mps 759 mmHg 82%
    06:00 +7°C° 0 mm 1 mps 760 mmHg 82%
    07:00 +7°C° 0 mm 1 mps 760 mmHg 79%
    08:00 +8°C° 0 mm 1 mps 760 mmHg 77%
    09:00 +9°C° 0 mm 1 mps 761 mmHg 74%
    10:00 +11°C° 0 mm 1 mps 761 mmHg 66%
    11:00 +13°C° 0 mm 1 mps 761 mmHg 58%
    12:00 +14°C° 0 mm 2 mps 761 mmHg 50%
    13:00 +15°C° 0 mm 2 mps 760 mmHg 48%
    14:00 +15°C° 0 mm 2 mps 760 mmHg 46%
    15:00 +16°C° 0 mm 2 mps 760 mmHg 44%
    16:00 +14°C° 0 mm 2 mps 760 mmHg 50%
    17:00 +13°C° 0 mm 1 mps 760 mmHg 55%
    18:00 +11°C° 0 mm 1 mps 761 mmHg 60%
    19:00 +10°C° 0 mm 1 mps 761 mmHg 62%
    20:00 +10°C° 0 mm 1 mps 761 mmHg 65%
    21:00 +8°C° 0 mm 2 mps 762 mmHg 68%
    22:00 +8°C° 0 mm 1 mps 762 mmHg 70%
    23:00 +8°C° 0 mm 1 mps 762 mmHg 72%

    Day after tomorrow, 22 January, Tuesday

    Time Temperature Precipitation Wind Pressure Humidity
    00:00 +8°C° 0 mm 1 mps 762 mmHg 74%
    01:00 +7°C° 0 mm 1 mps 762 mmHg 76%
    02:00 +7°C° 0 mm 1 mps 762 mmHg 77%
    03:00 +7°C° 0 mm 1 mps 762 mmHg 79%
    04:00 +6°C° 0 mm 1 mps 762 mmHg 80%
    05:00 +6°C° 0 mm 1 mps 762 mmHg 81%
    06:00 +6°C° 0 mm 1 mps 762 mmHg 82%
    07:00 +6°C° 0 mm 0 mps 762 mmHg 79%
    08:00 +6°C° 0 mm 0 mps 762 mmHg 75%
    09:00 +7°C° 0 mm 0 mps 762 mmHg 72%
    10:00 +10°C° 0 mm 1 mps 762 mmHg 66%
    11:00 +10°C° 0 mm 2 mps 761 mmHg 60%
    12:00 +12°C° 0 mm 3 mps 761 mmHg 54%
    13:00 +13°C° 0 mm 3 mps 760 mmHg 52%
    14:00 +14°C° 0 mm 3 mps 759 mmHg 50%
    15:00 +14°C° 0 mm 4 mps 758 mmHg 48%
    16:00 +13°C° 0 mm 3 mps 758 mmHg 55%
    17:00 +11°C° 0 mm 3 mps 758 mmHg 61%
    18:00 +10°C° 0 mm 2 mps 758 mmHg 67%
    19:00 +10°C° 0 mm 2 mps 759 mmHg 73%
    20:00 +9°C° 0 mm 3 mps 759 mmHg 78%
    21:00 +9°C° 0 mm 3 mps 759 mmHg 84%
    22:00 +9°C° 0 mm 3 mps 759 mmHg 85%
    23:00 +8°C° 0 mm 3 mps 759 mmHg 86%

    23 January, Wednesday

    Time Temperature Precipitation Wind Pressure Humidity
    00:00 +8°C° 0 mm 3 mps 759 mmHg 87%
    01:00 +8°C° 0 mm 3 mps 759 mmHg 86%
    02:00 +7°C° 0 mm 3 mps 759 mmHg 85%
    03:00 +5°C° 0 mm 3 mps 759 mmHg 84%
    04:00 +6°C° 0 mm 2 mps 759 mmHg 83%
    05:00 +6°C° 0 mm 2 mps 759 mmHg 82%
    06:00 +5°C° 0 mm 2 mps 759 mmHg 80%
    07:00 +6°C° 0 mm 2 mps 759 mmHg 78%
    08:00 +7°C° 0 mm 2 mps 759 mmHg 76%
    09:00 +7°C° 0 mm 2 mps 760 mmHg 73%
    10:00 +10°C° 0 mm 3 mps 759 mmHg 67%
    11:00 +12°C° 0 mm 4 mps 759 mmHg 60%
    12:00 +14°C° 0 mm 5 mps 758 mmHg 53%
    13:00 +14°C° 0 mm 5 mps 757 mmHg 55%
    14:00 +14°C° 0 mm 5 mps 757 mmHg 57%
    15:00 +14°C° 0 mm 5 mps 756 mmHg 60%
    16:00 +13°C° 0 mm 5 mps 756 mmHg 63%
    17:00 +12°C° 0 mm 4 mps 756 mmHg 66%
    18:00 +11°C° 0 mm 4 mps 756 mmHg 70%
    19:00 +11°C° 0 mm 3 mps 756 mmHg 74%
    20:00 +10°C° 0 mm 3 mps 756 mmHg 79%
    21:00 +9°C° 0 mm 3 mps 756 mmHg 83%
    22:00 +8°C° 0 mm 3 mps 756 mmHg 86%
    23:00 +8°C° 0 mm 3 mps 756 mmHg 88%

    24 January, Thursday

    Time Temperature Precipitation Wind Pressure Humidity
    00:00 +7°C° 0 mm 2 mps 756 mmHg 91%
    01:00 +7°C° 0 mm 2 mps 756 mmHg 92%
    02:00 +7°C° 0 mm 2 mps 755 mmHg 92%
    03:00 +7°C° 0 mm 2 mps 755 mmHg 93%
    04:00 +6°C° 0 mm 2 mps 755 mmHg 94%
    05:00 +6°C° 0 mm 2 mps 754 mmHg 94%
    06:00 +6°C° 0 mm 2 mps 754 mmHg 94%
    07:00 +7°C° 0 mm 2 mps 754 mmHg 92%
    08:00 +8°C° 0 mm 2 mps 754 mmHg 90%
    09:00 +9°C° 0 mm 2 mps 754 mmHg 87%
    10:00 +11°C° 0 mm 3 mps 754 mmHg 78%
    11:00 +14°C° 0 mm 3 mps 754 mmHg 69%
    12:00 +17°C° 0 mm 4 mps 754 mmHg 60%
    13:00 +18°C° 0 mm 4 mps 754 mmHg 57%
    14:00 +18°C° 0 mm 4 mps 753 mmHg 54%
    15:00 +19°C° 0 mm 4 mps 753 mmHg 51%
    16:00 +17°C° 0 mm 3 mps 753 mmHg 57%
    17:00 +16°C° 0 mm 3 mps 754 mmHg 63%
    18:00 +14°C° 0 mm 2 mps 754 mmHg 69%
    19:00 +13°C° 0 mm 2 mps 755 mmHg 70%
    20:00 +12°C° 0 mm 2 mps 755 mmHg 72%
    21:00 +10°C° 0 mm 2 mps 756 mmHg 73%
    22:00 +9°C° 0 mm 2 mps 756 mmHg 71%
    23:00 +8°C° 0 mm 2 mps 757 mmHg 68%

    25 January, Friday

    Time Temperature Precipitation Wind Pressure Humidity
    00:00 +7°C° 0 mm 2 mps 757 mmHg 66%
    01:00 +7°C° 0 mm 2 mps 757 mmHg 65%
    02:00 +6°C° 0 mm 2 mps 758 mmHg 63%
    03:00 +6°C° 0 mm 2 mps 758 mmHg 62%
    04:00 +6°C° 0 mm 2 mps 758 mmHg 62%
    05:00 +5°C° 0 mm 2 mps 758 mmHg 62%
    06:00 +5°C° 0 mm 2 mps 758 mmHg 61%
    07:00 +6°C° 0 mm 2 mps 758 mmHg 60%
    08:00 +7°C° 0 mm 2 mps 759 mmHg 59%
    09:00 +7°C° 0 mm 2 mps 759 mmHg 58%
    10:00 +9°C° 0 mm 2 mps 759 mmHg 53%
    11:00 +11°C° 0 mm 3 mps 759 mmHg 49%
    12:00 +13°C° 0 mm 3 mps 759 mmHg 44%
    13:00 +14°C° 0 mm 3 mps 759 mmHg 44%
    14:00 +16°C° 0 mm 3 mps 759 mmHg 44%
    15:00 +16°C° 0 mm 3 mps 758 mmHg 43%
    16:00 +14°C° 0 mm 3 mps 759 mmHg 49%
    17:00 +13°C° 0 mm 2 mps 759 mmHg 54%
    18:00 +12°C° 0 mm 1 mps 760 mmHg 59%
    19:00 +11°C° 0 mm 1 mps 760 mmHg 60%
    20:00 +10°C° 0 mm 1 mps 761 mmHg 61%
    21:00 +9°C° 0 mm 1 mps 761 mmHg 62%
    22:00 +7°C° 0 mm 2 mps 762 mmHg 62%
    23:00 +7°C° 0 mm 2 mps 762 mmHg 62%
    Show more